This is the latest recevied weather packets stored in our database for station/object KB3FKJ. If no packets are shown the sender has not sent any weather packets the latest 10 day(s).
| Time | Temp. | Humidity | Pressure | Rain* | Wind** | Luminosity | Snow |
|---|---|---|---|---|---|---|---|
| 1778089768 | 14.44° C | 96% | 1006.8 hPa | 1.27 mm | - | 94 W/m² | - |
| 1778089466 | 14.44° C | 96% | 1006.9 hPa | 0 mm | - | 77 W/m² | - |
| 1778089157 | 14.44° C | 96% | 1006.7 hPa | 0 mm | - | 117 W/m² | - |
| 1778088854 | 14.44° C | 95% | 1006.4 hPa | 0 mm | - | 83 W/m² | - |
| 1778088552 | 14.44° C | 95% | 1006.8 hPa | 0 mm | - | 67 W/m² | - |
| 1778088248 | 15° C | 95% | 1006.5 hPa | 0 mm | - | 62 W/m² | - |
| 1778087945 | 15° C | 94% | 1006.5 hPa | 0 mm | - | 70 W/m² | - |
| 1778087642 | 14.44° C | 94% | 1006.5 hPa | 0 mm | - | 53 W/m² | - |
| 1778087340 | 15° C | 93% | 1006.4 hPa | 0 mm | - | 49 W/m² | - |
| 1778087036 | 15° C | 92% | 1006.3 hPa | 0 mm | - | 40 W/m² | - |
| 1778086729 | 15.56° C | 91% | 1006.5 hPa | 0 mm | - | 50 W/m² | - |
| 1778086427 | 15.56° C | 91% | 1006.3 hPa | 0 mm | - | 55 W/m² | - |
| 1778086123 | 15.56° C | 91% | 1006.2 hPa | 0 mm | - | 72 W/m² | - |
| 1778085819 | 16.11° C | 92% | 1006.3 hPa | 0 mm | - | 142 W/m² | - |
| 1778085518 | 15.56° C | 91% | 1006.2 hPa | 0 mm | - | 230 W/m² | - |
| 1778085211 | 15.56° C | 93% | 1006.4 hPa | 0 mm | - | 261 W/m² | - |
| 1778084907 | 15.56° C | 94% | 1006.4 hPa | 0 mm | - | 237 W/m² | - |
| 1778084606 | 15° C | 93% | 1006.4 hPa | 0 mm | - | 226 W/m² | - |
| 1778084303 | 15.56° C | 94% | 1006.5 hPa | 0 mm | - | 190 W/m² | - |
| 1778084000 | 15° C | 94% | 1006.5 hPa | 0 mm | - | 199 W/m² | - |
| 1778083692 | 15° C | 94% | 1006.5 hPa | 0 mm | - | 224 W/m² | - |
| 1778083389 | 15° C | 95% | 1006.4 hPa | 0 mm | - | 237 W/m² | - |
| 1778083088 | 14.44° C | 95% | 1006.2 hPa | 0 mm | - | 201 W/m² | - |
| 1778082783 | 13.89° C | 95% | 1006.5 hPa | 0 mm | - | 165 W/m² | - |
| 1778081655 | 13.89° C | 94% | 1006.5 hPa | 0 mm | - | 56 W/m² | - |
* Rain latest hour (hover to see other rain measurements)
** Current wind speed in m/s (hover to see current wind gust speed)